OK,78,25,844,78,2014-10-01T01:40:00,0,28072614,188013
OK,78,25,844,78,2014-10-01T01:45:00,0,28073061,188013
OK,78,25,844,78,2014-10-01T01:50:00,0,28073510,188013
OK,78,25,844,78,2014-10-01T01:55:00,0,28073827,188013
OK,78,25,844,78,2014-10-01T02:00:00,0,28074276,188013
OK,78,25,844,78,2014-10-01T02:05:00,0,28074718,188013
OK,78,25,844,78,2014-10-01T02:10:00,0,28075165,188013
OK,78,25,844,78,2014-10-01T02:15:00,0,28075614,188013
OK,78,25,844,78,2014-10-01T02:20:00,0,28076007,188013
OK,78,25,844,78,2014-10-01T02:25:00,0,28076446,188013
OK,78,25,844,78,2014-10-01T02:30:00,0,28076895,188013
OK,78,25,844,78,2014-10-01T02:35:00,0,28077344,188013
OK,78,25,844,78,2014-10-01T02:40:00,0,28077749,188013
OK,78,25,844,78,2014-10-01T02:45:00,0,28078196,188013
OK,57,35,844,57,2014-10-01T02:50:00,1,28078641,188013
OK,57,35,844,57,2014-10-01T02:55:00,1,28079090,188013
OK,57,35,844,57,2014-10-01T03:00:00,0,28079532,188013
OK,57,35,844,57,2014-10-01T03:05:00,0,28079981,188013
OK,57,35,844,57,2014-10-01T03:10:00,0,28080318,188013
OK,35,57,844,35,2014-10-01T03:15:00,0,28080764,188013
OK,35,57,844,35,2014-10-01T03:20:00,0,28081213,188013
OK,35,57,844,35,2014-10-01T03:25:00,0,28081660,188013
OK,35,57,844,35,2014-10-01T03:30:00,0,28082109,188013
OK,35,57,844,35,2014-10-01T03:35:00,0,28082545,188013
OK,35,57,844,35,2014-10-01T03:40:00,0,28082975,188013
OK,58,34,844,58,2014-10-01T03:45:00,2,28083423,188013
OK,58,34,844,58,2014-10-01T03:50:00,2,28083872,188013
OK,34,59,844,34,2014-10-01T03:55:00,0,28084315,188013
OK,34,59,844,34,2014-10-01T04:00:00,1,28084743,188013
OK,34,59,844,34,2014-10-01T04:05:00,1,28085187,188013
OK,34,59,844,34,2014-10-01T04:10:00,0,28085633,188013
OK,34,59,844,34,2014-10-01T04:15:00,0,28086081,188013
OK,108,18,844,108,2014-10-01T04:20:00,2,28086524,188013
OK,104,19,844,104,2014-10-01T04:25:00,2,28086972,188013
OK,61,33,844,61,2014-10-01T04:30:00,3,28087417,188013
OK,67,30,844,67,2014-10-01T04:35:00,4,28087866,188013
OK,67,30,844,67,2014-10-01T04:40:00,3,28088294,188013
OK,84,24,844,84,2014-10-01T04:45:00,0,28088739,188013
OK,51,39,844,51,2014-10-01T04:50:00,2,28089171,188013
OK,50,40,844,50,2014-10-01T04:55:00,4,28089618,188013
OK,41,49,844,41,2014-10-01T05:05:00,2,28090067,188013
OK,56,36,844,56,2014-10-01T05:10:00,4,28090860,188013
OK,52,38,844,52,2014-10-01T05:15:00,8,28091309,188013
OK,51,39,844,51,2014-10-01T05:20:00,7,28091729,188013
OK,68,29,844,68,2014-10-01T05:25:00,3,28092175,188013
OK,63,32,844,63,2014-10-01T05:30:00,7,28092620,188013
OK,59,34,844,59,2014-10-01T05:35:00,4,28093061,188013
OK,59,34,844,59,2014-10-01T05:40:00,5,28093491,188013
OK,81,24,844,81,2014-10-01T05:45:00,4,28093940,188013
OK,114,17,844,114,2014-10-01T05:50:00,2,28094355,188013
OK,111,18,844,111,2014-10-01T05:55:00,5,28094796,188013
OK,109,18,844,109,2014-10-01T06:00:00,3,28095243,188013
OK,53,38,844,53,2014-10-01T06:05:00,4,28095692,188013
OK,53,38,844,53,2014-10-01T06:10:00,4,28096107,188013
OK,67,30,844,67,2014-10-01T06:15:00,3,28096554,188013
OK,70,28,844,70,2014-10-01T06:20:00,2,28096991,188013
OK,67,30,844,67,2014-10-01T06:25:00,0,28097437,188013
OK,86,23,844,86,2014-10-01T06:30:00,1,28097886,188013
OK,78,25,844,78,2014-10-01T06:35:00,2,28098325,188013
OK,57,35,844,57,2014-10-01T06:40:00,3,28098768,188013
OK,61,33,844,61,2014-10-01T06:45:00,4,28099215,188013
OK,66,30,844,66,2014-10-01T06:50:00,3,28099561,188013
OK,63,32,844,63,2014-10-01T06:55:00,1,28100007,188013
OK,21,96,844,21,2014-10-01T07:00:00,1,28100317,188013
OK,65,31,844,65,2014-10-01T07:05:00,5,28100763,188013
OK,79,25,844,79,2014-10-01T07:10:00,7,28101136,188013
OK,80,25,844,80,2014-10-01T07:15:00,5,28101583,188013
OK,64,31,844,64,2014-10-01T07:20:00,4,28102020,188013
OK,66,30,844,66,2014-10-01T07:25:00,4,28102468,188013
OK,66,30,844,66,2014-10-01T07:30:00,2,28102900,188013
OK,66,30,844,66,2014-10-01T07:35:00,0,28103342,188013
OK,59,34,844,59,2014-10-01T07:40:00,1,28103788,188013
OK,54,37,844,54,2014-10-01T07:45:00,3,28104232,188013
OK,54,37,844,54,2014-10-01T07:50:00,3,28104674,188013
OK,56,36,844,56,2014-10-01T07:55:00,5,28105118,188013
OK,56,36,844,56,2014-10-01T08:00:00,7,28105560,188013
OK,55,36,844,55,2014-10-01T08:05:00,4,28106007,188013
OK,53,38,844,53,2014-10-01T08:10:00,0,28106445,188013
OK,37,54,844,37,2014-10-01T08:15:00,1,28106852,188013
OK,48,42,844,48,2014-10-01T08:20:00,2,28107282,188013
OK,81,24,844,81,2014-10-01T08:25:00,2,28107731,188013
OK,56,36,844,56,2014-10-01T08:30:00,6,28108170,188013
OK,70,28,844,70,2014-10-01T08:35:00,7,28108619,188013
OK,71,28,844,71,2014-10-01T08:40:00,6,28109049,188013
OK,59,34,844,59,2014-10-01T08:45:00,3,28109496,188013
OK,99,20,844,99,2014-10-01T08:50:00,2,28109841,188013
OK,73,27,844,73,2014-10-01T08:55:00,4,28110288,188013
OK,59,34,844,59,2014-10-01T09:00:00,7,28110712,188013
OK,74,27,844,74,2014-10-01T09:05:00,7,28111160,188013
OK,89,22,844,89,2014-10-01T09:10:00,4,28111589,188013
OK,58,34,844,58,2014-10-01T09:15:00,4,28112038,188013
OK,39,51,844,39,2014-10-01T09:20:00,2,28112380,188013
OK,61,33,844,61,2014-10-01T09:25:00,0,28112828,188013
OK,63,32,844,63,2014-10-01T09:30:00,2,28113254,188013
OK,53,38,844,53,2014-10-01T09:35:00,3,28113701,188013
OK,43,46,844,43,2014-10-01T09:40:00,3,28114133,188013
OK,54,37,844,54,2014-10-01T09:45:00,4,28114582,188013
OK,73,27,844,73,2014-10-01T09:50:00,6,28114937,188013
OK,114,17,844,114,2014-10-01T09:55:00,3,28115385,188013
OK,67,30,844,67,2014-10-01T10:00:00,1,28115799,188013
OK,73,27,844,73,2014-10-01T10:05:00,3,28116246,188013
OK,73,27,844,73,2014-10-01T10:10:00,3,28116656,188013
OK,59,34,844,59,2014-10-01T10:15:00,4,28117103,188013
OK,51,39,844,51,2014-10-01T10:20:00,7,28117529,188013
OK,61,33,844,61,2014-10-01T10:25:00,7,28117977,188013
OK,58,34,844,58,2014-10-01T10:30:00,4,28118422,188013
OK,91,22,844,91,2014-10-01T10:35:00,0,28118869,188013
OK,91,22,844,91,2014-10-01T10:40:00,0,28119313,188013
OK,54,37,844,54,2014-10-01T10:45:00,1,28119761,188013
OK,74,27,844,74,2014-10-01T10:50:00,1,28120209,188013
OK,69,29,844,69,2014-10-01T10:55:00,2,28120658,188013
OK,65,31,844,65,2014-10-01T11:00:00,3,28121042,188013
OK,77,26,844,77,2014-10-01T11:05:00,1,28121490,188013
OK,60,33,844,60,2014-10-01T11:10:00,5,28121929,188013
OK,64,31,844,64,2014-10-01T11:15:00,5,28122377,188013
OK,60,33,844,60,2014-10-01T11:20:00,3,28122819,188013
OK,60,33,844,60,2014-10-01T11:25:00,1,28123267,188013
OK,64,31,844,64,2014-10-01T11:30:00,2,28123700,188013
OK,68,29,844,68,2014-10-01T11:35:00,2,28124148,188013
OK,65,31,844,65,2014-10-01T11:40:00,2,28124553,188013
OK,77,26,844,77,2014-10-01T11:45:00,2,28124999,188013
OK,92,21,844,92,2014-10-01T11:50:00,2,28125428,188013
OK,79,25,844,79,2014-10-01T11:55:00,3,28125877,188013
OK,94,21,844,94,2014-10-01T12:00:00,0,28126230,188013
OK,51,39,844,51,2014-10-01T12:05:00,1,28126678,188013
OK,54,37,844,54,2014-10-01T12:10:00,2,28127127,188013
OK,60,33,844,60,2014-10-01T12:15:00,4,28127576,188013
OK,54,37,844,54,2014-10-01T12:20:00,5,28128005,188013
OK,54,37,844,54,2014-10-01T12:25:00,3,28128453,188013
OK,84,24,844,84,2014-10-01T12:30:00,2,28128888,188013
OK,88,22,844,88,2014-10-01T12:35:00,2,28129337,188013
OK,107,18,844,107,2014-10-01T12:40:00,1,28129772,188013
OK,53,38,844,53,2014-10-01T12:45:00,1,28130220,188013
OK,53,38,844,53,2014-10-01T12:50:00,1,28130649,188013
OK,69,29,844,69,2014-10-01T12:55:00,3,28131097,188013
OK,68,29,844,68,2014-10-01T13:00:00,6,28131535,188013
OK,53,38,844,53,2014-10-01T13:05:00,2,28131983,188013
OK,47,42,844,47,2014-10-01T13:10:00,2,28132422,188013
OK,50,40,844,50,2014-10-01T13:15:00,4,28132868,188013
OK,51,39,844,51,2014-10-01T13:20:00,3,28133306,188013
OK,71,28,844,71,2014-10-01T13:25:00,2,28133755,188013
OK,69,29,844,69,2014-10-01T13:30:00,3,28134194,188013
OK,69,29,844,69,2014-10-01T13:35:00,4,28134643,188013
OK,56,36,844,56,2014-10-01T13:40:00,1,28135063,188013
OK,68,29,844,68,2014-10-01T13:45:00,5,28135511,188013
OK,61,33,844,61,2014-10-01T13:50:00,4,28135948,188013
OK,51,39,844,51,2014-10-01T13:55:00,4,28136397,188013
OK,61,33,844,61,2014-10-01T14:00:00,4,28136837,188013
OK,69,29,844,69,2014-10-01T14:05:00,3,28137286,188013
OK,68,29,844,68,2014-10-01T14:10:00,4,28137720,188013
OK,72,28,844,72,2014-10-01T14:15:00,4,28138169,188013
OK,69,29,844,69,2014-10-01T14:20:00,3,28138598,188013
OK,51,39,844,51,2014-10-01T14:25:00,2,28139046,188013
OK,96,21,844,96,2014-10-01T14:30:00,2,28139458,188013
OK,65,31,844,65,2014-10-01T14:35:00,4,28139906,188013
OK,54,37,844,54,2014-10-01T14:40:00,5,28140349,188013
OK,60,33,844,60,2014-10-01T14:45:00,6,28140797,188013
OK,64,31,844,64,2014-10-01T14:50:00,6,28141224,188013
OK,67,30,844,67,2014-10-01T14:55:00,4,28141672,188013
OK,68,29,844,68,2014-10-01T15:00:00,3,28142101,188013
OK,39,51,844,39,2014-10-01T15:05:00,1,28142549,188013
OK,103,19,844,103,2014-10-01T15:10:00,2,28142977,188013
OK,65,31,844,65,2014-10-01T15:15:00,4,28143425,188013
OK,47,42,844,47,2014-10-01T15:20:00,2,28143873,188013
OK,60,33,844,60,2014-10-01T15:25:00,3,28144322,188013
OK,59,34,844,59,2014-10-01T15:30:00,4,28144746,188013
OK,51,39,844,51,2014-10-01T15:35:00,3,28145157,188013
OK,51,39,844,51,2014-10-01T15:40:00,2,28145606,188013
OK,52,38,844,52,2014-10-01T15:45:00,1,28146055,188013
OK,58,34,844,58,2014-10-01T15:50:00,2,28146504,188013
OK,72,28,844,72,2014-10-01T15:55:00,3,28146916,188013
OK,68,29,844,68,2014-10-01T16:00:00,4,28147356,188013
OK,65,31,844,65,2014-10-01T16:05:00,5,28147805,188013
OK,71,28,844,71,2014-10-01T16:10:00,8,28148207,188013
OK,71,28,844,71,2014-10-01T16:15:00,7,28148655,188013
OK,50,40,844,50,2014-10-01T16:20:00,1,28149095,188013
OK,47,42,844,47,2014-10-01T16:25:00,1,28149543,188013
OK,55,36,844,55,2014-10-01T16:30:00,3,28149970,188013
OK,64,31,844,64,2014-10-01T16:35:00,2,28150418,188013
OK,55,36,844,55,2014-10-01T16:40:00,0,28150837,188013
OK,55,36,844,55,2014-10-01T16:45:00,0,28151285,188013
OK,55,36,844,55,2014-10-01T16:50:00,0,28151734,188013
OK,71,28,844,71,2014-10-01T17:00:00,2,28152183,188013
OK,71,28,844,71,2014-10-01T17:05:00,0,28152629,188013
OK,66,30,844,66,2014-10-01T17:10:00,2,28153076,188013
OK,67,30,844,67,2014-10-01T17:15:00,3,28153525,188013
OK,66,30,844,66,2014-10-01T17:20:00,4,28153938,188013
OK,61,33,844,61,2014-10-01T17:25:00,2,28154384,188013
OK,63,32,844,63,2014-10-01T17:30:00,2,28154826,188013
OK,62,32,844,62,2014-10-01T17:35:00,1,28155274,188013
OK,62,32,844,62,2014-10-01T17:40:00,0,28155694,188013
OK,50,40,844,50,2014-10-01T17:45:00,1,28156141,188013
OK,99,20,844,99,2014-10-01T17:50:00,4,28156590,188013
OK,81,24,844,81,2014-10-01T17:55:00,2,28157028,188013
OK,39,51,844,39,2014-10-01T18:00:00,2,28157459,188013
OK,58,34,844,58,2014-10-01T18:05:00,1,28157906,188013
OK,58,34,844,58,2014-10-01T18:10:00,0,28158350,188013
OK,58,34,844,58,2014-10-01T18:15:00,0,28158796,188013
OK,64,31,844,64,2014-10-01T18:20:00,3,28159242,188013
OK,63,32,844,63,2014-10-01T18:25:00,4,28159578,188013
OK,28,72,844,28,2014-10-01T18:30:00,1,28160026,188013
OK,28,72,844,28,2014-10-01T18:35:00,1,28160475,188013
OK,28,72,844,28,2014-10-01T18:40:00,1,28160914,188013
OK,28,72,844,28,2014-10-01T18:45:00,0,28161362,188013
OK,28,72,844,28,2014-10-01T18:50:00,0,28161779,188013
OK,28,72,844,28,2014-10-01T18:55:00,0,28162228,188013
OK,28,72,844,28,2014-10-01T19:00:00,0,28162630,188013
OK,28,72,844,28,2014-10-01T19:05:00,0,28163061,188013
OK,28,72,844,28,2014-10-01T19:10:00,0,28163509,188013
OK,28,72,844,28,2014-10-01T19:15:00,0,28163958,188013
OK,28,72,844,28,2014-10-01T19:20:00,0,28164390,188013
OK,84,24,844,84,2014-10-01T19:25:00,1,28164838,188013
OK,84,24,844,84,2014-10-01T19:30:00,1,28165264,188013
OK,84,24,844,84,2014-10-01T19:35:00,0,28165711,188013
OK,64,31,844,64,2014-10-01T19:40:00,2,28166152,188013
OK,64,31,844,64,2014-10-01T19:45:00,2,28166514,188013
OK,63,32,844,63,2014-10-01T19:50:00,0,28166963,188013
OK,69,29,844,69,2014-10-01T19:55:00,1,28167392,188013
OK,69,29,844,69,2014-10-01T20:00:00,1,28167826,188013
OK,69,29,844,69,2014-10-01T20:05:00,0,28168274,188013
OK,69,29,844,69,2014-10-01T20:10:00,0,28168719,188013
OK,69,29,844,69,2014-10-01T20:15:00,0,28169168,188013
OK,58,34,844,58,2014-10-01T20:20:00,1,28169616,188013
OK,58,34,844,58,2014-10-01T20:25:00,1,28170042,188013
OK,58,34,844,58,2014-10-01T20:30:00,0,28170487,188013
OK,58,34,844,58,2014-10-01T20:35:00,0,28170935,188013
OK,58,34,844,58,2014-10-01T20:40:00,0,28171372,188013
OK,58,34,844,58,2014-10-01T20:45:00,0,28171818,188013
OK,58,34,844,58,2014-10-01T20:50:00,0,28172266,188013
OK,58,34,844,58,2014-10-01T20:55:00,0,28172712,188013
OK,58,34,844,58,2014-10-01T21:00:00,0,28173158,188013
OK,58,34,844,58,2014-10-01T21:05:00,0,28173607,188013
OK,65,31,844,65,2014-10-01T21:10:00,1,28174048,188013
OK,65,31,844,65,2014-10-01T21:15:00,1,28174497,188013
OK,65,31,844,65,2014-10-01T21:20:00,0,28174923,188013
OK,65,31,844,65,2014-10-01T21:25:00,0,28175319,188013
OK,65,31,844,65,2014-10-01T21:30:00,0,28175768,188013
OK,65,31,844,65,2014-10-01T21:35:00,0,28176217,188013
OK,65,31,844,65,2014-10-01T21:40:00,0,28176666,188013
OK,65,31,844,65,2014-10-01T21:45:00,0,28177029,188013
OK,65,31,844,65,2014-10-01T21:50:00,0,28177462,188013
OK,65,31,844,65,2014-10-01T21:55:00,0,28177908,188013
OK,65,31,844,65,2014-10-01T22:00:00,0,28178357,188013
OK,65,31,844,65,2014-10-01T22:05:00,0,28178804,188013
OK,65,31,844,65,2014-10-01T22:10:00,0,28179239,188013
OK,65,31,844,65,2014-10-01T22:15:00,0,28179681,188013
OK,65,31,844,65,2014-10-01T22:20:00,0,28180128,188013
OK,65,31,844,65,2014-10-01T22:25:00,0,28180526,188013
OK,65,31,844,65,2014-10-01T22:30:00,0,28180975,188013
OK,65,31,844,65,2014-10-01T22:35:00,0,28181399,188013
OK,65,31,844,65,2014-10-01T22:40:00,0,28181847,188013
OK,65,31,844,65,2014-10-01T22:45:00,0,28182294,188013
OK,65,31,844,65,2014-10-01T22:50:00,0,28182743,188013
OK,65,31,844,65,2014-10-01T22:55:00,0,28183160,188013
OK,65,31,844,65,2014-10-01T23:00:00,0,28183593,188013
OK,65,31,844,65,2014-10-01T23:05:00,0,28184038,188013
OK,65,31,844,65,2014-10-01T23:10:00,0,28184487,188013
OK,61,33,844,61,2014-10-01T23:15:00,1,28184922,188013
OK,61,33,844,61,2014-10-01T23:20:00,1,28185370,188013
OK,61,33,844,61,2014-10-01T23:25:00,0,28185801,188013
OK,61,33,844,61,2014-10-01T23:30:00,0,28186193,188013
OK,81,24,844,81,2014-10-01T23:40:00,2,28187040,188013
OK,81,24,844,81,2014-10-01T23:45:00,2,28187482,188013
OK,81,24,844,81,2014-10-01T23:55:00,0,28188372,188013
OK,81,24,844,81,2014-10-02T00:00:00,0,28188808,188013
OK,81,24,844,81,2014-10-02T00:05:00,0,28189257,188013
OK,81,24,844,81,2014-10-02T00:10:00,0,28189680,188013
OK,81,24,844,81,2014-10-02T00:15:00,0,28190128,188013
OK,81,24,844,81,2014-10-02T00:20:00,0,28190482,188013
OK,81,24,844,81,2014-10-02T00:25:00,0,28190930,188013
OK,81,24,844,81,2014-10-02T00:30:00,0,28191379,188013
OK,81,24,844,81,2014-10-02T00:35:00,0,28191686,188013
OK,81,24,844,81,2014-10-02T00:40:00,0,28192134,188013
OK,81,24,844,81,2014-10-02T00:45:00,0,28192567,188013
OK,81,24,844,81,2014-10-02T00:50:00,0,28193011,188013
OK,81,24,844,81,2014-10-02T00:55:00,0,28193378,188013
OK,81,24,844,81,2014-10-02T01:05:00,0,28194276,188013
OK,81,24,844,81,2014-10-02T01:15:00,0,28194725,188013
OK,81,24,844,81,2014-10-02T01:20:00,0,28195410,188013
OK,81,24,844,81,2014-10-02T01:30:00,0,28195859,188013
OK,81,24,844,81,2014-10-02T01:35:00,0,28196592,188013
OK,81,24,844,81,2014-10-02T01:40:00,0,28197016,188013
OK,81,24,844,81,2014-10-02T01:45:00,0,28197464,188013
OK,81,24,844,81,2014-10-02T01:50:00,0,28197912,188013
OK,81,24,844,81,2014-10-02T01:55:00,0,28198360,188013
OK,81,24,844,81,2014-10-02T02:00:00,0,28198809,188013
OK,81,24,844,81,2014-10-02T02:05:00,0,28199191,188013
OK,81,24,844,81,2014-10-02T02:10:00,0,28199623,188013
OK,81,24,844,81,2014-10-02T02:15:00,0,28200065,188013
OK,81,24,844,81,2014-10-02T02:20:00,0,28200508,188013
OK,81,24,844,81,2014-10-02T02:25:00,0,28200957,188013
OK,81,24,844,81,2014-10-02T02:30:00,0,28201388,188013
OK,81,24,844,81,2014-10-02T02:45:00,0,28202286,188013
OK,81,24,844,81,2014-10-02T02:50:00,0,28202728,188013
OK,81,24,844,81,2014-10-02T02:55:00,0,28203176,188013
OK,81,24,844,81,2014-10-02T03:00:00,0,28203611,188013
OK,81,24,844,81,2014-10-02T03:10:00,0,28204060,188013
OK,80,25,844,80,2014-10-02T03:25:00,1,28204509,188013
OK,80,25,844,80,2014-10-02T03:30:00,0,28204958,188013
OK,80,25,844,80,2014-10-02T03:35:00,0,28205387,188013
OK,80,25,844,80,2014-10-02T03:40:00,0,28205833,188013
OK,80,25,844,80,2014-10-02T03:45:00,0,28206216,188013
OK,80,25,844,80,2014-10-02T03:55:00,0,28207114,188013
OK,80,25,844,80,2014-10-02T04:00:00,0,28207535,188013
OK,80,25,844,80,2014-10-02T04:05:00,0,28207982,188013
OK,80,25,844,80,2014-10-02T04:10:00,0,28208411,188013
OK,80,25,844,80,2014-10-02T04:15:00,0,28208858,188013
OK,80,25,844,80,2014-10-02T04:20:00,0,28209296,188013
OK,80,25,844,80,2014-10-02T04:25:00,0,28209745,188013
OK,80,25,844,80,2014-10-02T04:30:00,0,28210169,188013
OK,80,25,844,80,2014-10-02T04:35:00,0,28210617,188013
OK,60,33,844,60,2014-10-02T04:40:00,2,28211044,188013
OK,60,33,844,60,2014-10-02T04:45:00,0,28211486,188013
OK,60,33,844,60,2014-10-02T04:50:00,0,28211864,188013
OK,46,43,844,46,2014-10-02T04:55:00,2,28212313,188013
OK,41,49,844,41,2014-10-02T05:00:00,1,28212742,188013
OK,67,30,844,67,2014-10-02T05:05:00,1,28213191,188013
OK,67,30,844,67,2014-10-02T05:10:00,0,28213630,188013
OK,68,29,844,68,2014-10-02T05:15:00,7,28214078,188013
OK,53,38,844,53,2014-10-02T05:20:00,0,28214494,188013
OK,86,23,844,86,2014-10-02T05:25:00,5,28214940,188013
OK,69,29,844,69,2014-10-02T05:30:00,1,28215358,188013
OK,62,32,844,62,2014-10-02T05:40:00,1,28215805,188013
OK,62,32,844,62,2014-10-02T05:45:00,0,28216584,188013
OK,62,32,844,62,2014-10-02T05:50:00,0,28217031,188013
OK,68,29,844,68,2014-10-02T05:55:00,3,28217480,188013
OK,77,26,844,77,2014-10-02T06:00:00,2,28217919,188013
OK,87,23,844,87,2014-10-02T06:05:00,1,28218368,188013
OK,87,23,844,87,2014-10-02T06:10:00,0,28218789,188013
OK,105,19,844,105,2014-10-02T06:15:00,3,28219237,188013
OK,53,38,844,53,2014-10-02T06:20:00,2,28219611,188013
OK,59,34,844,59,2014-10-02T06:25:00,4,28220059,188013
OK,61,33,844,61,2014-10-02T06:30:00,6,28220494,188013
OK,62,32,844,62,2014-10-02T06:35:00,7,28220942,188013
OK,69,29,844,69,2014-10-02T06:40:00,3,28221331,188013
OK,77,26,844,77,2014-10-02T06:45:00,1,28221609,188013
OK,88,22,844,88,2014-10-02T07:00:00,1,28222203,188013
OK,86,23,844,86,2014-10-02T07:05:00,3,28222652,188013
OK,53,38,844,53,2014-10-02T07:10:00,2,28223084,188013
OK,20,100,844,20,2014-10-02T07:15:00,0,28223519,188013
OK,20,100,844,20,2014-10-02T07:20:00,0,28223966,188013
OK,20,100,844,20,2014-10-02T07:25:00,0,28224321,188013
OK,20,100,844,20,2014-10-02T07:30:00,0,28224770,188013
OK,55,36,844,55,2014-10-02T07:35:00,1,28225219,188013
OK,55,36,844,55,2014-10-02T07:40:00,1,28225544,188013
OK,66,30,844,66,2014-10-02T07:50:00,4,28226431,188013
OK,52,38,844,52,2014-10-02T07:55:00,3,28226880,188013
OK,41,49,844,41,2014-10-02T08:00:00,1,28227297,188013
OK,66,30,844,66,2014-10-02T08:05:00,1,28227744,188013
OK,66,30,844,66,2014-10-02T08:10:00,0,28228104,188013
OK,60,33,844,60,2014-10-02T08:15:00,3,28228552,188013
OK,63,32,844,63,2014-10-02T08:20:00,0,28228964,188013
OK,57,35,844,57,2014-10-02T08:25:00,0,28229411,188013
OK,57,35,844,57,2014-10-02T08:30:00,0,28229763,188013
OK,64,31,844,64,2014-10-02T08:35:00,3,28230210,188013
OK,64,31,844,64,2014-10-02T08:40:00,0,28230582,188013
OK,64,31,844,64,2014-10-02T08:45:00,0,28231025,188013
OK,74,27,844,74,2014-10-02T08:50:00,5,28231449,188013
OK,71,28,844,71,2014-10-02T08:55:00,0,28231897,188013
OK,57,35,844,57,2014-10-02T09:00:00,1,28232240,188013
OK,57,35,844,57,2014-10-02T09:10:00,0,28232688,188013
OK,51,39,844,51,2014-10-02T09:15:00,0,28233137,188013
OK,51,39,844,51,2014-10-02T09:20:00,0,28233562,188013
OK,86,23,844,86,2014-10-02T09:25:00,3,28234010,188013
OK,86,23,844,86,2014-10-02T09:30:00,3,28234344,188013
OK,69,29,844,69,2014-10-02T09:35:00,1,28234792,188013
OK,69,29,844,69,2014-10-02T09:40:00,0,28235219,188013
OK,65,31,844,65,2014-10-02T09:45:00,5,28235668,188013
OK,71,28,844,71,2014-10-02T09:50:00,0,28236112,188013
OK,72,28,844,72,2014-10-02T09:55:00,3,28236558,188013
OK,72,28,844,72,2014-10-02T10:00:00,1,28236962,188013
OK,72,28,844,72,2014-10-02T10:05:00,0,28237409,188013
OK,70,28,844,70,2014-10-02T10:10:00,5,28237857,188013
OK,53,38,844,53,2014-10-02T10:15:00,4,28238305,188013
OK,65,31,844,65,2014-10-02T10:20:00,3,28238745,188013
OK,64,31,844,64,2014-10-02T10:25:00,2,28239194,188013
OK,59,34,844,59,2014-10-02T10:30:00,1,28239625,188013
OK,53,38,844,53,2014-10-02T10:35:00,4,28240073,188013
OK,91,22,844,91,2014-10-02T10:40:00,2,28240518,188013
OK,70,28,844,70,2014-10-02T10:45:00,4,28240966,188013
OK,57,35,844,57,2014-10-02T10:50:00,3,28241399,188013
OK,57,35,844,57,2014-10-02T10:55:00,2,28241846,188013
OK,57,35,844,57,2014-10-02T11:00:00,0,28242243,188013
OK,57,35,844,57,2014-10-02T11:05:00,0,28242691,188013
OK,53,38,844,53,2014-10-02T11:15:00,3,28243140,188013
OK,49,41,844,49,2014-10-02T11:20:00,0,28243903,188013
OK,49,41,844,49,2014-10-02T11:25:00,0,28244333,188013
OK,49,41,844,49,2014-10-02T11:30:00,0,28244781,188013
OK,88,22,844,88,2014-10-02T11:35:00,1,28245230,188013
OK,88,22,844,88,2014-10-02T11:40:00,1,28245637,188013
OK,88,22,844,88,2014-10-02T11:45:00,0,28246085,188013
OK,59,34,844,59,2014-10-02T11:50:00,5,28246522,188013
OK,51,39,844,51,2014-10-02T11:55:00,4,28246971,188013
OK,58,34,844,58,2014-10-02T12:00:00,2,28247417,188013
OK,58,34,844,58,2014-10-02T12:05:00,2,28247848,188013
OK,51,39,844,51,2014-10-02T12:10:00,0,28248296,188013
OK,58,34,844,58,2014-10-02T12:15:00,5,28248744,188013
OK,57,35,844,57,2014-10-02T12:20:00,4,28249171,188013
OK,41,49,844,41,2014-10-02T12:25:00,0,28249615,188013
OK,41,49,844,41,2014-10-02T12:30:00,0,28250034,188013
OK,67,30,844,67,2014-10-02T12:35:00,2,28250432,188013
OK,116,17,844,116,2014-10-02T12:45:00,6,28251212,188013
OK,61,33,844,61,2014-10-02T13:20:00,8,28251757,188013
OK,138,14,844,138,2014-10-02T13:30:00,5,28252341,188013
OK,81,24,844,81,2014-10-02T13:35:00,1,28252783,188013
OK,81,24,844,81,2014-10-02T13:40:00,0,28253200,188013
OK,66,30,844,66,2014-10-02T13:45:00,3,28253649,188013
OK,96,21,844,96,2014-10-02T13:50:00,1,28254055,188013
OK,58,34,844,58,2014-10-02T13:55:00,6,28254375,188013
OK,57,35,844,57,2014-10-02T14:10:00,3,28254952,188013
OK,78,25,844,78,2014-10-02T14:15:00,7,28255401,188013
OK,54,37,844,54,2014-10-02T14:20:00,2,28255829,188013
OK,57,35,844,57,2014-10-02T14:25:00,0,28256278,188013
OK,64,31,844,64,2014-10-02T14:30:00,2,28256706,188013
OK,60,33,844,60,2014-10-02T14:35:00,3,28257155,188013
OK,56,36,844,56,2014-10-02T14:40:00,2,28257596,188013
OK,65,31,844,65,2014-10-02T14:45:00,9,28258044,188013
OK,71,28,844,71,2014-10-02T14:50:00,3,28258477,188013
OK,56,36,844,56,2014-10-02T14:55:00,3,28258923,188013
OK,57,35,844,57,2014-10-02T15:00:00,4,28259372,188013
OK,61,33,844,61,2014-10-02T15:05:00,3,28259819,188013
OK,57,35,844,57,2014-10-02T15:10:00,0,28260252,188013
OK,52,38,844,52,2014-10-02T15:15:00,1,28260701,188013
OK,52,38,844,52,2014-10-02T15:20:00,0,28261141,188013
OK,73,27,844,73,2014-10-02T15:25:00,8,28261523,188013
OK,76,26,844,76,2014-10-02T15:30:00,3,28261953,188013
OK,45,44,844,45,2014-10-02T15:35:00,2,28262400,188013
OK,45,44,844,45,2014-10-02T15:40:00,2,28262846,188013
OK,39,51,844,39,2014-10-02T15:45:00,2,28263284,188013
OK,43,46,844,43,2014-10-02T15:50:00,0,28263725,188013
OK,43,46,844,43,2014-10-02T15:55:00,0,28264127,188013
OK,43,46,844,43,2014-10-02T16:00:00,0,28264576,188013
OK,50,40,844,50,2014-10-02T16:05:00,2,28265014,188013
OK,48,42,844,48,2014-10-02T16:10:00,2,28265454,188013
OK,50,40,844,50,2014-10-02T16:15:00,1,28265850,188013